Torna al catalogo

STARLINK-34686

AttivoComunicazioniVLEO
NORAD 65087·PAYLOAD·🇺🇸 United States

Lanciato Aug 4, 2025 da Cape Canaveral Space Force Station

Loading…

Prossimi Passaggi (prossime 24 ore)

TLE

AggiornatoSource: CelesTrak SupGP

Epoca: Sep 14, 2026, 20:51 UTC

1 65087C 25167K   26257.86923611  .00046245  00000+0  14871-2 0  2575
2 65087  53.1569 228.0914 0001345  93.7066 204.7215 15.31679407    12

Traccia STARLINK-34686 in tempo reale con AllMySat

Download on the App Store